Location: Nians�bougou
(13.2321°N, 4.9818°W)
Time: 09:01:18
(UTC+00:00)

ALOS - Pass Details

Date: 18 February 2020
Orbit: 684 x 685 km, 97.8° (Epoch: 08 April)

Event Time Altitude Azimuth Distance (km) Brightness Sun altitude
Rises 05:59:53 0° 350° (N) 3,037 5.4 -10.8°
Reaches altitude 10° 06:02:32 10° 335° (NNW) 2,122 4.5 -10.2°
Maximum altitude 06:06:06 22° 285° (WNW) 1,459 3.4 -9.3°
Drops below altitude 10° 06:09:41 10° 234° (SW) 2,121 4.4 -8.5°
Sets 06:12:20 0° 219° (SW) 3,035 5.3 -7.8°
